DW1297 Weather Reports


time (UTC)temp
C
wind
direction
speed
KPH
gust
KPH
rain 1hr
cm
rain 24hr
cm
rain mn
cm
humidity
%
barometer
mb
20260506173004 20 167 0.0 0.0 0.00 0.00 0.00 59 1020.3
20260506171509 20 178 0.0 3.2 0.00 0.00 0.00 59 1020.4
20260506170014 19 188 0.0 8.0 0.00 0.00 0.00 62 1020.6
20260506164504 18 171 0.0 3.2 0.00 0.00 0.00 65 1020.7
20260506163024 17 142 0.0 0.0 0.00 0.00 0.00 68 1020.7
20260506161508 16 126 0.0 4.8 0.00 0.00 0.00 73 1020.8
20260506160017 15 192 0.0 4.8 0.00 0.00 0.00 77 1020.8
20260506154508 13 140 0.0 6.4 0.00 0.00 0.00 85 1021.0
20260506153005 12 159 0.0 0.0 0.00 0.00 0.00 90 1020.9
20260506150016 10 196 0.0 0.0 0.00 0.00 0.00 91 1020.9
20260506144517 10 196 0.0 1.6 0.00 0.00 0.00 90 1020.9
20260506143012 9 342 0.0 0.0 0.00 0.00 0.00 89 1020.9
20260506141510 8 342 0.0 0.0 0.00 0.00 0.00 88 1020.8
20260506140013 8 342 0.0 0.0 0.00 0.00 0.00 88 1020.7
20260506134509 8 342 0.0 0.0 0.00 0.00 0.00 87 1020.5
20260506133006 8 342 0.0 0.0 0.00 0.00 0.00 87 1020.3
20260506124512 8 342 0.0 0.0 0.00 0.00 0.00 86 1019.9
20260506123010 8 342 0.0 0.0 0.00 0.00 0.00 86 1019.8
20260506121515 8 342 0.0 0.0 0.00 0.00 0.00 85 1019.6
20260506114512 8 342 0.0 0.0 0.00 0.00 0.00 85 1019.3
20260506111513 9 342 0.0 0.0 0.00 0.00 0.00 85 1019.2
20260506110014 9 342 0.0 0.0 0.00 0.00 0.00 84 1019.2
20260506104522 9 342 0.0 0.0 0.00 0.00 0.00 84 1019.2
20260506103020 9 342 0.0 0.0 0.00 0.00 0.00 84 1019.2
20260506100014 10 342 0.0 0.0 0.00 0.00 0.00 83 1018.9
20260506094517 10 342 0.0 0.0 0.00 0.00 0.00 83 1018.7
20260506093016 10 342 0.0 0.0 0.00 0.00 0.00 82 1018.4
20260506091509 10 342 0.0 0.0 0.00 0.00 0.00 82 1018.3
20260506090011 10 342 0.0 0.0 0.00 0.00 0.00 82 1018.6
20260506084508 10 342 0.0 0.0 0.00 0.00 0.00 82 1018.7
20260506073018 11 342 0.0 0.0 0.00 0.00 0.00 79 1018.5
20260506071513 11 342 0.0 0.0 0.00 0.00 0.00 78 1018.4
20260506061531 12 342 0.0 0.0 0.00 0.00 0.00 77 1017.9
20260506043024 15 342 0.0 0.0 0.00 0.00 0.00 70 1017.1
20260506041517 15 342 0.0 0.0 0.00 0.00 0.00 69 1016.8
20260506040033 15 342 0.0 0.0 0.00 0.00 0.00 67 1016.7
20260506034513 16 342 0.0 0.0 0.00 0.00 0.00 66 1016.3
20260506033022 16 342 0.0 0.0 0.00 0.00 0.00 65 1016.1
20260506031541 17 342 0.0 0.0 0.00 0.00 0.00 63 1015.9
20260506030024 17 342 0.0 0.0 0.00 0.00 0.00 61 1015.8
20260506024521 17 342 0.0 0.0 0.00 0.00 0.00 60 1015.7
20260506023016 18 342 0.0 0.0 0.00 0.00 0.00 59 1015.6
20260506021522 18 342 0.0 6.4 0.00 0.00 0.00 57 1015.4
20260506020022 18 360 0.0 0.0 0.00 0.00 0.00 56 1015.4
20260506013025 19 360 0.0 0.0 0.00 0.00 0.00 54 1015.2
20260506011523 19 296 0.0 0.0 0.00 0.00 0.00 52 1015.3
20260506010022 19 331 0.0 0.0 0.00 0.00 0.00 52 1015.2
20260506003024 19 355 1.6 8.0 0.00 0.00 0.00 52 1015.2
20260505234509 20 218 0.0 6.4 0.00 0.00 0.00 51 1015.3
20260505233007 20 360 0.0 0.0 0.00 0.00 0.00 50 1015.3
20260505231512 21 360 0.0 8.0 0.00 0.00 0.00 48 1015.2
20260505230019 21 334 1.6 12.9 0.00 0.00 0.00 47 1015.2
20260505224508 21 205 0.0 0.0 0.00 0.00 0.00 45 1015.2
20260505223014 21 346 0.0 12.9 0.00 0.00 0.00 45 1015.2
20260505221509 21 329 0.0 8.0 0.00 0.00 0.00 47 1015.3
20260505220005 21 215 0.0 8.0 0.00 0.00 0.00 47 1015.2
20260505214518 21 184 0.0 9.7 0.00 0.00 0.00 47 1015.4
20260505213012 21 238 0.0 14.5 0.00 0.00 0.00 49 1015.5
20260505211516 21 197 0.0 9.7 0.00 0.00 0.00 49 1015.6
20260505210020 21 298 0.0 12.9 0.00 0.00 0.00 47 1015.6
20260505204512 21 182 3.2 16.1 0.00 0.00 0.00 48 1015.6
20260505203007 21 201 3.2 9.7 0.00 0.00 0.00 49 1015.6
20260505201520 20 214 1.6 9.7 0.00 0.00 0.00 51 1015.4
20260505193018 19 213 0.0 11.3 0.00 0.00 0.00 55 1015.9
20260505190013 17 189 0.0 6.4 0.00 0.00 0.00 61 1015.9
20260505184510 17 333 0.0 9.7 0.00 0.00 0.00 62 1016.0
20260505183022 16 210 0.0 9.7 0.00 0.00 0.00 65 1016.1
20260505181503 16 209 0.0 12.9 0.00 0.00 0.00 68 1015.9
20260505180009 15 208 0.0 11.3 0.00 0.00 0.00 70 1016.0